Regional Weather Roundup
Issued by NWS

Home | Current Version | Previous Version | Text Only | Print | Product List | Glossary Off
Versions: 1 2 3 4 5 6 7 8 9 10 11 12 13 14 15 16 17 18 19 20 21 22 23 24 25 26 27 28 29 30 31 32 33 34 35 36 37 38 39 40 41 42 43 44 45 46 47 48 49 50

000
ASUS43 KDMX 271908
RWRIA

WEATHER ROUNDUP FOR IOWA
NATIONAL WEATHER SERVICE DES MOINES IA
200 PM CDT WED JUL 27 2016

NOTE: "FAIR" INDICATES FEW OR NO CLOUDS BELOW 12,000 FEET WITH NO
SIGNIFICANT WEATHER AND/OR OBSTRUCTIONS TO VISIBILITY.

* - THESE STATIONS ARE NOT NWS STATIONS...THUS NOT UNDER NWS
QUALITY CONTROL.  THEY ALSO DO NOT REPORT WEATHER SUCH
AS PRECIPITATION OR FOG.

IAZ001>003-012>014-020>022-031>034-043>046-272000-
   NORTHWEST IOWA

CITY           SKY/WX    TMP DP  RH WIND       PRES   REMARKS
CARROLL *      CLOUDY    73  72  94 NW5       30.01S
CHEROKEE *     MOSUNNY   83  71  66 SW5       29.98F HX  88
DENISON *      MOSUNNY   75  68  78 S10G17    29.98F
LE MARS *      MOSUNNY   86  68  54 VRB7G13   29.99F HX  89
SHELDON *      MOSUNNY   82  70  65 NW9       29.98S HX  86
SIOUX CITY     MOSUNNY   87  68  52 S3        29.98F HX  90
SPENCER        MOSUNNY   84  68  58 W10       29.98F HX  87
STORM LAKE *   SUNNY     81  70  69 SW9       30.01S HX  84
$$

IAZ055>058-069>071-079>083-090>094-272000-
   SOUTHWEST IOWA

CITY           SKY/WX    TMP DP  RH WIND       PRES   REMARKS
ATLANTIC *     HVY RAIN  70  68  94 NE26G37   30.00R VSB 1/4
CLARINDA *       N/A     84  72  65 MISG      30.01S HX  89
COUNCIL BLFS * MOSUNNY   77  70  78 NE15G22   29.99S
CRESTON *      PTSUNNY   81  68  65 CALM      30.02S HX  83
HARLAN  *      CLOUDY    70  66  88 E14G22    30.03F
LAMONI         MOSUNNY   83  69  62 SW5       29.99F HX  86
RED OAK *      CLOUDY    84  73  70 SW8       29.98F HX  91
SHENANDOAH *   PTSUNNY   84  75  74 S6        29.99S HX  92
$$

IAZ047>049-059>061-072>074-084-272000-
   CENTRAL IOWA

CITY           SKY/WX    TMP DP  RH WIND       PRES   REMARKS
AMES           PTSUNNY   79  69  71 SW5       30.00F HX  81
ANKENY *         N/A    N/A N/A N/A MISG        N/A
BOONE *        CLOUDY    77  70  78 CALM      29.99S
CHARITON *       N/A    N/A N/A N/A MISG        N/A
DES MOINES     PTSUNNY   85  68  56 VRB6      29.97F HX  88
GRINNELL*      CLOUDY    81  65  59 S5        30.01F HX  82
KNOXVILLE *    CLOUDY    82  66  57 CALM      29.98F HX  85
MARSHALLTOWN   CLOUDY    79  68  69 S5        29.99F HX  81
NEWTON *       CLOUDY    81  70  69 SW7       29.99F HX  84
PELLA *        CLOUDY    83  65  53 CALM      30.00F HX  85
PERRY *        LGT RAIN  77  73  88 CALM      29.99F
$$

IAZ004>006-015-016-023>025-035-036-272000-
   NORTH CENTRAL IOWA

CITY           SKY/WX    TMP DP  RH WIND       PRES   REMARKS
ALGONA *       SUNNY     81  70  69 S13G21    29.99F HX  84
ESTHERVILLE    PTSUNNY   82  71  69 SW8       29.98F HX  86
FORT DODGE *   PTSUNNY   77  68  73 SW7       30.02R
MASON CITY     CLOUDY    81  68  64 S12       30.02F HX  84
FOREST CITY *  PTSUNNY   79  64  61 SW10G18   30.00F HX  81
IOWA FALLS *     N/A     80  67  64 S9        30.01F HX  82
$$

IAZ007>011-017>019-026>030-037>042-050>054-066-272000-
   NORTHEAST IOWA

CITY           SKY/WX    TMP DP  RH WIND       PRES   REMARKS
CEDAR RAPIDS   MOSUNNY   83  69  62 S6        29.98F HX  86
CHARLES CITY * CLOUDY    79  72  78 VRB6      30.01S HX  82
CLINTON *      MOSUNNY   84  70  62 SE6       29.99F HX  88
DECORAH *      CLOUDY    79  68  69 VRB5      30.00S HX  81
DUBUQUE        MOSUNNY   82  66  58 S6        30.01F HX  84
MONTICELLO *   MOSUNNY   82  66  57 S5        29.99F HX  85
OELWEIN *      CLOUDY    79  68  69 S7        30.01F HX  81
WATERLOO       CLOUDY    80  66  62 S7        29.98F HX  82
$$

IAZ064-065-067-068-078-272000-
   EAST CENTRAL IOWA

CITY           SKY/WX    TMP DP  RH WIND       PRES   REMARKS
DAVENPORT      MOSUNNY   84  68  58 S6        29.99F HX  87
IOWA CITY      PTSUNNY   84  69  60 S7        29.99F HX  88
MT. PLEASANT * MOSUNNY   89  71  54 S6        29.98F HX  94
MUSCATINE *    PTSUNNY   86  68  54 S7        29.98S HX  89
QUAD CITIES    PTSUNNY   86  70  58 S10       29.97F HX  90
$$

IAZ062-063-075>077-085>089-095>099-272000-
   SOUTHEAST IOWA

CITY           SKY/WX    TMP DP  RH WIND       PRES   REMARKS
BURLINGTON     SUNNY     85  71  63 VRB6      29.97F HX  90
FAIRFIELD *    MOSUNNY   84  68  58 SW5       29.98F HX  87
KEOKUK *       MOSUNNY   86  72  62 SW3       29.96F HX  92
OSKALOOSA *      N/A     82  67  60 SW5       29.99F HX  84
CENTERVILLE *    N/A     84  66  54 CALM      30.01S HX  86
OTTUMWA        PTSUNNY   83  65  54 S5        29.97F HX  85
WASHINGTON *   MOSUNNY   82  72  69 CALM      30.00S HX  87
$$

ABBREVIATIONS USED IN REMARKS
   TC - TEMPERATURES IN CELSIUS
  WCI - WIND CHILL INDEX
   HX - HEAT INDEX
  VSB - VISIBILITY
$$





USA.gov is the U.S. government's official web portal to all federal, state and local government web resources and services.